DLH3A EHAM-EDDF

Flight info

Callsign DLH3A
Flight time 0h 45m
Altitude 33000
Route EDUPO Z739 MISGO DCT DIXAT DIXAT1A
Aircraft A321/M-SDE3FGHIRWY/LB1

Departure

Time 2026-05-07 10:56
Airport Amsterdam Airport Schiphol (EHAM)

Arrival

Time 2026-05-07 11:41
Airport Frankfurt Main Airport (EDDF)
Time Latitude Longitude Altitude Speed Heading
2026-05-07 10:33 52.30412 4.76365 -1 ft 0 kts 238°
2026-05-07 10:45 52.30415 4.76374 -1 ft 2 kts 237°
2026-05-07 10:45 52.30426 4.76400 -1 ft 3 kts 226°
2026-05-07 10:45 52.30440 4.76418 -1 ft 3 kts 184°
2026-05-07 10:45 52.30449 4.76417 -1 ft 0 kts 158°
2026-05-07 10:50 52.30435 4.76433 -1 ft 5 kts 144°
2026-05-07 10:50 52.30388 4.76485 -1 ft 12 kts 147°
2026-05-07 10:50 52.30306 4.76529 -1 ft 12 kts 212°
2026-05-07 10:50 52.30246 4.76394 -1 ft 17 kts 240°
2026-05-07 10:51 52.30180 4.76224 -1 ft 18 kts 237°
2026-05-07 10:51 52.30110 4.76041 -1 ft 20 kts 238°
2026-05-07 10:51 52.30035 4.75844 -1 ft 21 kts 238°
2026-05-07 10:51 52.29954 4.75632 -1 ft 23 kts 238°
2026-05-07 10:52 52.29868 4.75406 -1 ft 24 kts 238°
2026-05-07 10:52 52.29851 4.75184 -1 ft 20 kts 295°
2026-05-07 10:52 52.29938 4.75016 -1 ft 20 kts 311°
2026-05-07 10:52 52.30033 4.74841 -1 ft 21 kts 311°
2026-05-07 10:53 52.30125 4.74671 8 ft 17 kts 311°
2026-05-07 10:53 52.30201 4.74531 10 ft 17 kts 311°
2026-05-07 10:53 52.30280 4.74383 10 ft 18 kts 311°
2026-05-07 10:53 52.30370 4.74183 -1 ft 22 kts 281°
2026-05-07 10:54 52.30286 4.73994 -1 ft 22 kts 214°
2026-05-07 10:54 52.30189 4.73845 -2 ft 18 kts 256°
2026-05-07 10:54 52.30248 4.73745 -3 ft 14 kts 354°
2026-05-07 10:54 52.30292 4.73746 -4 ft 0 kts
2026-05-07 10:55 52.30297 4.73747 -4 ft 3 kts
2026-05-07 10:55 52.30534 4.73769 -3 ft 72 kts
2026-05-07 10:55 52.31268 4.73836 -2 ft 137 kts
2026-05-07 10:55 52.32372 4.73945 202 ft 168 kts
2026-05-07 10:56 52.33543 4.74145 894 ft 173 kts 14°
2026-05-07 10:56 52.34683 4.74813 1529 ft 179 kts 22°
2026-05-07 10:56 52.35903 4.75616 1832 ft 200 kts 22°
2026-05-07 10:56 52.37276 4.76522 2058 ft 225 kts 25°
2026-05-07 10:57 52.38571 4.78119 2419 ft 246 kts 46°
2026-05-07 10:57 52.39759 4.80189 3145 ft 251 kts 46°
2026-05-07 10:57 52.40963 4.82287 3953 ft 255 kts 51°
2026-05-07 10:57 52.41892 4.84783 4716 ft 260 kts 67°
2026-05-07 10:58 52.42353 4.87673 5476 ft 266 kts 83°
2026-05-07 10:58 52.42401 4.90732 6191 ft 271 kts 90°
2026-05-07 10:58 52.42399 4.93844 6931 ft 275 kts 92°
2026-05-07 10:58 52.42028 4.96911 7649 ft 278 kts 113°
2026-05-07 10:59 52.40993 4.99595 8357 ft 281 kts 129°
2026-05-07 10:59 52.39746 5.02081 9098 ft 283 kts 130°
2026-05-07 10:59 52.38479 5.04570 9858 ft 286 kts 130°
2026-05-07 10:59 52.37185 5.07095 10356 ft 297 kts 131°
2026-05-07 11:00 52.35804 5.09785 10491 ft 320 kts 130°
2026-05-07 11:00 52.34328 5.12663 10620 ft 340 kts 130°
2026-05-07 11:00 52.32766 5.15711 10809 ft 357 kts 130°
2026-05-07 11:00 52.31152 5.18860 11287 ft 364 kts 130°
2026-05-07 11:01 52.29518 5.22047 11862 ft 368 kts 130°
2026-05-07 11:01 52.27867 5.25271 12429 ft 372 kts 130°
2026-05-07 11:01 52.26195 5.28532 12998 ft 376 kts 130°
2026-05-07 11:01 52.25077 5.30710 13390 ft 378 kts 130°
2026-05-07 11:02 52.23376 5.34017 13932 ft 382 kts 130°
2026-05-07 11:02 52.21657 5.37347 14460 ft 385 kts 130°
2026-05-07 11:02 52.19924 5.40697 14987 ft 388 kts 130°
2026-05-07 11:02 52.17605 5.45173 15666 ft 392 kts 131°
2026-05-07 11:03 52.16411 5.47474 16031 ft 394 kts 131°
2026-05-07 11:03 52.14631 5.50900 16540 ft 397 kts 131°
2026-05-07 11:03 52.12864 5.54301 17034 ft 400 kts 131°
2026-05-07 11:03 52.11060 5.57765 17547 ft 402 kts 131°
2026-05-07 11:04 52.09246 5.61244 18028 ft 405 kts 131°
2026-05-07 11:04 52.07411 5.64765 18492 ft 408 kts 131°
2026-05-07 11:04 52.05574 5.68289 18920 ft 410 kts 131°
2026-05-07 11:04 52.03725 5.71832 19329 ft 413 kts 131°
2026-05-07 11:05 52.01858 5.75398 19751 ft 415 kts 131°
2026-05-07 11:05 51.99979 5.78979 20161 ft 418 kts 131°
2026-05-07 11:05 51.98089 5.82572 20601 ft 419 kts 131°
2026-05-07 11:05 51.96184 5.86176 21030 ft 421 kts 131°
2026-05-07 11:06 51.94261 5.89780 21437 ft 423 kts 132°
2026-05-07 11:06 51.92322 5.93392 21840 ft 426 kts 132°
2026-05-07 11:06 51.90369 5.97021 22234 ft 428 kts 132°
2026-05-07 11:06 51.88431 6.00613 22609 ft 430 kts 132°
2026-05-07 11:07 51.86458 6.04268 23020 ft 433 kts 132°
2026-05-07 11:07 51.84467 6.07951 23474 ft 436 kts 132°
2026-05-07 11:07 51.82461 6.11641 23880 ft 438 kts 132°
2026-05-07 11:07 51.80435 6.15349 24246 ft 441 kts 132°
2026-05-07 11:08 51.78402 6.19063 24600 ft 442 kts 132°
2026-05-07 11:08 51.76359 6.22797 24967 ft 444 kts 132°
2026-05-07 11:08 51.74313 6.26542 25298 ft 446 kts 132°
2026-05-07 11:08 51.72250 6.30310 25616 ft 448 kts 133°
2026-05-07 11:09 51.70178 6.34087 25889 ft 451 kts 132°
2026-05-07 11:09 51.68095 6.37879 26173 ft 453 kts 132°
2026-05-07 11:09 51.66000 6.41681 26496 ft 454 kts 132°
2026-05-07 11:09 51.63898 6.45491 26779 ft 456 kts 132°
2026-05-07 11:10 51.61789 6.49313 27062 ft 457 kts 132°
2026-05-07 11:10 51.59670 6.53146 27340 ft 459 kts 132°
2026-05-07 11:10 51.57542 6.56990 27583 ft 461 kts 132°
2026-05-07 11:10 51.55404 6.60847 27838 ft 463 kts 133°
2026-05-07 11:11 51.53254 6.64713 28061 ft 465 kts 133°
2026-05-07 11:11 51.51093 6.68588 28308 ft 466 kts 132°
2026-05-07 11:11 51.48931 6.72460 28665 ft 465 kts 132°
2026-05-07 11:11 51.46777 6.76317 29046 ft 463 kts 132°
2026-05-07 11:12 51.44634 6.80145 29444 ft 461 kts 132°
2026-05-07 11:12 51.42494 6.83957 29804 ft 460 kts 132°
2026-05-07 11:12 51.40360 6.87767 30128 ft 459 kts 131°
2026-05-07 11:12 51.38291 6.91646 30415 ft 458 kts 130°
2026-05-07 11:13 51.36285 6.95631 30700 ft 459 kts 128°
2026-05-07 11:13 51.34328 6.99660 31026 ft 459 kts 128°
2026-05-07 11:13 51.32406 7.03660 31317 ft 459 kts 128°
2026-05-07 11:13 51.30426 7.07747 31648 ft 458 kts 128°
2026-05-07 11:14 51.28462 7.11743 31918 ft 458 kts 128°
2026-05-07 11:14 51.26495 7.15691 32196 ft 458 kts 129°
2026-05-07 11:14 51.24515 7.19675 32474 ft 458 kts 128°
2026-05-07 11:14 51.22535 7.23669 32713 ft 458 kts 128°
2026-05-07 11:15 51.20555 7.27656 32958 ft 459 kts 128°
2026-05-07 11:15 51.18572 7.31643 33043 ft 458 kts 128°
2026-05-07 11:15 51.14607 7.39605 33048 ft 459 kts 128°
2026-05-07 11:16 51.10630 7.47590 33045 ft 460 kts 128°
2026-05-07 11:16 51.06649 7.55547 33043 ft 459 kts 131°
2026-05-07 11:17 51.04312 7.58959 32951 ft 457 kts 146°
2026-05-07 11:17 51.01631 7.61515 32420 ft 455 kts 151°
2026-05-07 11:17 50.98864 7.63941 31892 ft 454 kts 152°
2026-05-07 11:17 50.96035 7.66126 31370 ft 452 kts 162°
2026-05-07 11:18 50.92968 7.67170 30861 ft 451 kts 173°
2026-05-07 11:18 50.89847 7.67785 30367 ft 452 kts 173°
2026-05-07 11:18 50.86713 7.68362 29833 ft 453 kts 174°
2026-05-07 11:18 50.83576 7.68936 29248 ft 454 kts 173°
2026-05-07 11:19 50.80431 7.69511 28681 ft 455 kts 173°
2026-05-07 11:19 50.77261 7.69933 28117 ft 456 kts 181°
2026-05-07 11:19 50.74087 7.69724 27582 ft 457 kts 183°
2026-05-07 11:19 50.70900 7.69440 27048 ft 459 kts 184°
2026-05-07 11:20 50.67709 7.69156 26524 ft 461 kts 184°
2026-05-07 11:20 50.64494 7.68891 26008 ft 461 kts 181°
2026-05-07 11:20 50.61325 7.69391 25500 ft 458 kts 166°
2026-05-07 11:20 50.58349 7.71138 25013 ft 456 kts 154°
2026-05-07 11:21 50.55501 7.73321 24528 ft 454 kts 154°
2026-05-07 11:21 50.52667 7.75501 24049 ft 453 kts 154°
2026-05-07 11:21 50.49871 7.77649 23575 ft 452 kts 154°
2026-05-07 11:21 50.47057 7.79804 23015 ft 449 kts 154°
2026-05-07 11:22 50.44269 7.81975 22334 ft 443 kts 151°
2026-05-07 11:22 50.41784 7.84629 21535 ft 421 kts 142°
2026-05-07 11:22 50.39549 7.87415 20764 ft 401 kts 141°
2026-05-07 11:22 50.37406 7.90083 19994 ft 385 kts 142°
2026-05-07 11:23 50.35355 7.92634 19269 ft 370 kts 141°
2026-05-07 11:23 50.33377 7.95097 18540 ft 357 kts 139°
2026-05-07 11:23 50.31739 7.97928 17660 ft 348 kts 121°
2026-05-07 11:23 50.30753 8.01317 16729 ft 340 kts 106°
2026-05-07 11:24 50.30046 8.04829 15817 ft 336 kts 106°
2026-05-07 11:24 50.29351 8.08292 14931 ft 331 kts 107°
2026-05-07 11:24 50.28664 8.11705 14081 ft 328 kts 106°
2026-05-07 11:24 50.27981 8.15087 13167 ft 324 kts 107°
2026-05-07 11:25 50.27303 8.18420 12494 ft 319 kts 107°
2026-05-07 11:25 50.26634 8.21707 11849 ft 316 kts 107°
2026-05-07 11:25 50.25974 8.24958 11212 ft 311 kts 107°
2026-05-07 11:25 50.25328 8.28127 10590 ft 302 kts 107°
2026-05-07 11:26 50.24698 8.31220 9982 ft 295 kts 107°
2026-05-07 11:26 50.24084 8.34234 9314 ft 287 kts 106°
2026-05-07 11:26 50.23483 8.37175 8653 ft 281 kts 107°
2026-05-07 11:26 50.22889 8.40088 8132 ft 282 kts 106°
2026-05-07 11:27 50.22353 8.43033 7746 ft 280 kts 96°
2026-05-07 11:27 50.22251 8.46050 7360 ft 278 kts 90°
2026-05-07 11:27 50.22202 8.49059 6979 ft 275 kts 90°
2026-05-07 11:27 50.22157 8.51979 6637 ft 262 kts 89°
2026-05-07 11:28 50.22112 8.54763 6383 ft 253 kts 89°
2026-05-07 11:28 50.22070 8.57472 6132 ft 247 kts 89°
2026-05-07 11:28 50.22027 8.60094 6019 ft 237 kts 89°
2026-05-07 11:28 50.21986 8.62659 6023 ft 236 kts 89°
2026-05-07 11:29 50.21949 8.65203 6028 ft 233 kts 89°
2026-05-07 11:29 50.21911 8.67729 6017 ft 233 kts 89°
2026-05-07 11:29 50.21869 8.70255 5990 ft 233 kts 89°
2026-05-07 11:29 50.21825 8.72778 5962 ft 232 kts 89°
2026-05-07 11:30 50.21782 8.75265 5937 ft 233 kts 89°
2026-05-07 11:30 50.21740 8.77770 5898 ft 228 kts 89°
2026-05-07 11:30 50.21697 8.80224 5711 ft 224 kts 89°
2026-05-07 11:30 50.21656 8.82676 5599 ft 222 kts 88°
2026-05-07 11:31 50.21701 8.85077 5574 ft 225 kts 83°
2026-05-07 11:31 50.21891 8.87502 5540 ft 225 kts 77°
2026-05-07 11:31 50.22221 8.89884 5523 ft 224 kts 72°
2026-05-07 11:31 50.22674 8.92190 5492 ft 223 kts 68°
2026-05-07 11:32 50.23739 8.96738 5439 ft 223 kts 68°
2026-05-07 11:32 50.24175 8.99059 5410 ft 224 kts 83°
2026-05-07 11:32 50.23963 9.01463 5385 ft 228 kts 113°
2026-05-07 11:33 50.23025 9.03402 5369 ft 222 kts 143°
2026-05-07 11:33 50.21629 9.04359 5235 ft 220 kts 174°
2026-05-07 11:33 50.20132 9.04148 5110 ft 216 kts 202°
2026-05-07 11:33 50.18893 9.02917 4991 ft 211 kts 225°
2026-05-07 11:34 50.17815 9.01405 4869 ft 205 kts 224°
2026-05-07 11:34 50.16756 8.99934 4782 ft 204 kts 225°
2026-05-07 11:34 50.15696 8.98467 4708 ft 203 kts 224°
2026-05-07 11:34 50.14637 8.97003 4628 ft 203 kts 224°
2026-05-07 11:35 50.13582 8.95545 4605 ft 202 kts 224°
2026-05-07 11:35 50.12614 8.94046 4572 ft 197 kts 236°
2026-05-07 11:35 50.11944 8.92217 4547 ft 192 kts 252°
2026-05-07 11:35 50.11497 8.90281 4443 ft 187 kts 253°
2026-05-07 11:36 50.11058 8.88413 4271 ft 181 kts 253°
2026-05-07 11:36 50.10625 8.86580 4053 ft 179 kts 253°
2026-05-07 11:36 50.10192 8.84770 3837 ft 178 kts 253°
2026-05-07 11:36 50.09767 8.82985 3646 ft 174 kts 253°
2026-05-07 11:37 50.09348 8.81210 3446 ft 176 kts 253°
2026-05-07 11:37 50.08927 8.79427 3211 ft 175 kts 253°
2026-05-07 11:37 50.08507 8.77649 2968 ft 174 kts 252°
2026-05-07 11:37 50.08090 8.75883 2732 ft 173 kts 252°
2026-05-07 11:38 50.07674 8.74123 2498 ft 173 kts 253°
2026-05-07 11:38 50.07259 8.72372 2253 ft 173 kts 252°
2026-05-07 11:38 50.06843 8.70615 2021 ft 172 kts 253°
2026-05-07 11:38 50.06438 8.68905 1801 ft 165 kts 252°
2026-05-07 11:39 50.06049 8.67266 1569 ft 159 kts 252°
2026-05-07 11:39 50.05675 8.65689 1357 ft 156 kts 252°
2026-05-07 11:39 50.05306 8.64137 1142 ft 149 kts 252°
2026-05-07 11:39 50.04950 8.62640 945 ft 147 kts 252°
2026-05-07 11:40 50.04598 8.61156 748 ft 147 kts 251°
2026-05-07 11:40 50.04248 8.59674 542 ft 146 kts 251°
2026-05-07 11:40 50.03895 8.58195 383 ft 144 kts 251°
2026-05-07 11:40 50.03580 8.56860 358 ft 107 kts 249°
2026-05-07 11:41 50.03423 8.56206 352 ft 31 kts 250°
2026-05-07 11:41 50.03351 8.55903 348 ft 30 kts 250°
2026-05-07 11:41 50.03308 8.55584 343 ft 31 kts 272°
2026-05-07 11:41 50.03339 8.55266 342 ft 27 kts 279°
2026-05-07 11:42 50.03362 8.55056 347 ft 0 kts 280°
2026-05-07 11:42 50.03362 8.55054 350 ft 1 kts 285°
2026-05-07 11:42 50.03381 8.55043 351 ft 5 kts 359°
2026-05-07 11:42 50.03409 8.55120 346 ft 13 kts 70°
2026-05-07 11:43 50.03447 8.55287 345 ft 20 kts 70°
2026-05-07 11:43 50.03501 8.55513 350 ft 25 kts 70°
2026-05-07 11:43 50.03566 8.55791 356 ft 29 kts 70°
2026-05-07 11:43 50.03642 8.56103 355 ft 31 kts 69°
2026-05-07 11:44 50.03720 8.56420 355 ft 32 kts 69°
2026-05-07 11:44 50.03797 8.56748 361 ft 32 kts 70°
2026-05-07 11:44 50.03874 8.57075 361 ft 32 kts 69°
2026-05-07 11:44 50.03950 8.57388 363 ft 30 kts 69°
2026-05-07 11:45 50.04023 8.57692 370 ft 30 kts 70°
2026-05-07 11:45 50.04095 8.57999 368 ft 31 kts 70°
2026-05-07 11:45 50.04169 8.58306 372 ft 31 kts 69°
2026-05-07 11:45 50.04245 8.58621 371 ft 31 kts 69°
2026-05-07 11:46 50.04319 8.58932 375 ft 30 kts 69°
2026-05-07 11:46 50.04393 8.59235 376 ft 30 kts 69°
2026-05-07 11:46 50.04466 8.59463 375 ft 16 kts 23°
2026-05-07 11:46 50.04544 8.59469 374 ft 18 kts 358°
2026-05-07 11:47 50.04675 8.59454 372 ft 20 kts 348°
2026-05-07 11:47 50.04809 8.59381 371 ft 22 kts 339°
2026-05-07 11:47 50.04970 8.59334 367 ft 26 kts 352°
2026-05-07 11:47 50.05078 8.59236 363 ft 15 kts 279°
2026-05-07 11:48 50.05040 8.59193 360 ft 7 kts 169°
2026-05-07 11:48 50.05001 8.59214 366 ft 2 kts 159°
2026-05-07 11:48 50.04998 8.59216 365 ft 0 kts 159°